Location: Artiguedieu
(43.5000°N, 0.5454°E)
Time: 12:58:24
(UTC+00:00)

ATLAS 2AS CENTAUR R/B - Pass Details

Date: 06 December 2020
Orbit: 943 x 1268 km, 63.7° (Epoch: 26 January)

Event Time Altitude Azimuth Distance (km) Brightness Sun altitude
Exits shadow 04:39:49 33° 336° (NNW) 1,980 3.8 -27.6°
Drops below altitude 10° 04:45:58 10° 27° (NNE) 3,197 5.4 -26.5°
Sets 04:49:02 0° 37° (NE) 4,127 6.2 -25.9°
